User: anonymous   Login
Location: *
(34.8620°S, 39.3380°E)
Time: 16:53:12
(UTC+00:00)
Language:

SL-19 R/B - Orbit

View from above orbital plane
View from above orbital plane
View from above satellite
View from above satellite

Ground track
Ground track

The orbit data is extracted from the following two-line orbital elements,

1 36589U 10023B   21297.40423112 -.00000047  00000-0  27660-5 0  9993
2 36589 100.5578 114.0233 0225717 145.9902 274.0887 13.58399351565286
Epoch (UTC): 24 October 2021 09:42:05
Eccentricity: 0.0225717
inclination: 100.5578°
perigee height: 874 km
apogee height: 1209 km
right ascension of ascending node: 114.0233°
argument of perigee: 145.9902°
revolutions per day: 13.58399351
mean anomaly at epoch: 274.0887°
orbit number at epoch: 56528

The dashed part of the orbit path shows where the satellite is in the earth's shadow,  

DLR